Houston / Southwest Airport, TX

4:45 AM CDT on July 24, 2017 (GMT -0500)
Houston-Southwest

Weather History for KAXH - October, 2012

Change the Weather History Date:

Thursday, October 4, 2012

  Actual Average (KHOU) Record (KHOU)
Temperature  
Mean Temperature 75 °F -  
Max Temperature 90 °F 81 °F 95 °F (2002)
Min Temperature 60 °F 64 °F 43 °F (1975)
Cooling Degree Days 10    
Growing Degree Days 25 (Base 50)    
Moisture  
Dew Point 63 °F    
Average Humidity 69    
Maximum Humidity 87    
Minimum Humidity 45    
Precipitation  
Precipitation 0.00 in - - ()
Sea Level Pressure  
Sea Level Pressure 30.10 in    
Wind  
Wind Speed 3 mph (SE)    
Max Wind Speed 13 mph    
Max Gust Speed 20 mph    
Visibility 10 miles    
Events      
Averages and records for this station are not official NWS values.
T = Trace of Precipitation, MM = Missing Value Source: NWS Daily Summary

Daily Weather History Graph

Daily Weather History Graph

Search for Another Location

Airport or City:

Trip Planner

Search our weather history database for the weather conditions in past years. The results will help you decide how hot, cold, wet, or windy it might be!

Date:

Astronomy

Oct. 04, 2012 Rise Set
Actual Time 7:17 AM CDT 7:03 PM CDT
Civil Twilight 6:53 AM CDT 7:27 PM CDT
Nautical Twilight 6:25 AM CDT 7:54 PM CDT
Astronomical Twilight 5:58 AM CDT 8:22 PM CDT
Moon 10:00 PM CDT (10/4) 11:15 AM CDT (10/4)
Length of Visible Light 12h 33m
Length of Day
11h 46m
Waning Gibbous, 82% of the Moon is Illuminated
Oct 4
Waning Gibbous
Oct 8
Last Quarter
Oct 15
New
Oct 21
First Quarter
Oct 29
Full

Hourly Weather History & Observations

Time (CDT) Temp. Heat Index Dew Point Humidity Pressure Visibility Wind Dir Wind Speed Gust Speed Precip Events Conditions
12:15 AM 62.1 °F - 55.4 °F 79% 30.06 in 10.0 mi Calm Calm - N/A   Clear
12:35 AM 62.6 °F - 55.6 °F 78% 30.06 in 10.0 mi Calm Calm - N/A   Clear
12:55 AM 62.1 °F - 55.9 °F 80% 30.06 in 10.0 mi Calm Calm - N/A   Clear
1:15 AM 62.2 °F - 56.1 °F 80% 30.05 in 10.0 mi Calm Calm - N/A   Clear
1:35 AM 62.6 °F - 57.2 °F 82% 30.06 in 10.0 mi Calm Calm - N/A   Clear
1:55 AM 61.7 °F - 55.8 °F 81% 30.06 in 10.0 mi Calm Calm - N/A   Clear
2:15 AM 61.2 °F - 55.4 °F 81% 30.06 in 10.0 mi Calm Calm - N/A   Clear
2:35 AM 60.8 °F - 55.4 °F 82% 30.06 in 10.0 mi Calm Calm - N/A   Clear
2:55 AM 60.8 °F - 55.4 °F 82% 30.06 in 10.0 mi Calm Calm - N/A   Clear
3:15 AM 61.3 °F - 55.4 °F 81% 30.06 in 10.0 mi Calm Calm - N/A   Clear
3:35 AM 61.3 °F - 56.3 °F 83% 30.06 in 10.0 mi Calm Calm - N/A   Clear
3:55 AM 61.2 °F - 56.3 °F 84% 30.06 in 10.0 mi Calm Calm - N/A   Clear
4:15 AM 61.2 °F - 55.9 °F 83% 30.07 in 10.0 mi Calm Calm - N/A   Clear
4:35 AM 61.2 °F - 56.3 °F 84% 30.07 in 10.0 mi Calm Calm - N/A   Clear
4:55 AM 61.3 °F - 55.8 °F 82% 30.08 in 10.0 mi Calm Calm - N/A   Clear
5:15 AM 62.2 °F - 56.7 °F 82% 30.08 in 10.0 mi Calm Calm - N/A   Clear
5:35 AM 61.9 °F - 57.2 °F 85% 30.09 in 10.0 mi Calm Calm - N/A   Clear
5:55 AM 61.7 °F - 56.5 °F 83% 30.09 in 10.0 mi Calm Calm - N/A   Clear
6:15 AM 61.3 °F - 57.0 °F 86% 30.10 in 10.0 mi Calm Calm - N/A   Clear
6:35 AM 61.7 °F - 57.2 °F 85% 30.11 in 10.0 mi Calm Calm - N/A   Clear
6:55 AM 61.2 °F - 55.9 °F 83% 30.11 in 10.0 mi Calm Calm - N/A   Clear
7:15 AM 61.3 °F - 56.3 °F 83% 30.11 in 5.0 mi Calm Calm - N/A   Haze
7:35 AM 61.5 °F - 57.2 °F 86% 30.11 in 5.0 mi Calm Calm - N/A   Haze
7:55 AM 64.0 °F - 59.7 °F 86% 30.12 in 7.0 mi Calm Calm - N/A   Clear
8:15 AM 68.2 °F - 63.1 °F 84% 30.12 in 10.0 mi Calm Calm - N/A   Clear
8:35 AM 72.7 °F - 66.4 °F 81% 30.13 in 10.0 mi Calm Calm - N/A   Clear
8:55 AM 75.2 °F - 69.3 °F 82% 30.13 in 10.0 mi SE 4.6 mph - N/A   Clear
9:15 AM 77.4 °F - 68.9 °F 75% 30.14 in 10.0 mi SE 6.9 mph - N/A   Clear
9:35 AM 79.7 °F - 68.0 °F 67% 30.14 in 10.0 mi ESE 4.6 mph - N/A   Clear
9:55 AM 82.0 °F 84.7 °F 67.5 °F 61% 30.14 in 10.0 mi SE 6.9 mph - N/A   Clear
10:15 AM 83.5 °F 85.7 °F 66.2 °F 56% 30.14 in 10.0 mi SE 10.4 mph 18.4 mph N/A   Clear
10:35 AM 84.6 °F 87.1 °F 66.6 °F 55% 30.14 in 10.0 mi SE 9.2 mph 16.1 mph N/A   Clear
10:55 AM 85.8 °F 88.2 °F 66.2 °F 52% 30.15 in 10.0 mi SSE 9.2 mph 16.1 mph N/A   Clear
11:15 AM 86.4 °F 88.4 °F 65.5 °F 50% 30.15 in 10.0 mi SSE 9.2 mph 17.3 mph N/A   Scattered Clouds
11:35 AM 86.9 °F 88.6 °F 65.3 °F 48% 30.15 in 10.0 mi SE 10.4 mph 19.6 mph N/A   Clear
11:55 AM 87.8 °F 90.0 °F 65.7 °F 48% 30.14 in 10.0 mi SE 9.2 mph 18.4 mph N/A   Scattered Clouds
12:15 PM 88.3 °F 90.5 °F 66.0 °F 47% 30.14 in 10.0 mi SSE 10.4 mph 19.6 mph N/A   Clear
12:35 PM 89.6 °F 92.2 °F 66.4 °F 46% 30.14 in 10.0 mi SE 10.4 mph 17.3 mph N/A   Clear
12:55 PM 89.2 °F 92.0 °F 66.4 °F 47% 30.13 in 10.0 mi SE 10.4 mph 17.3 mph N/A   Scattered Clouds
1:15 PM 89.8 °F 92.5 °F 66.4 °F 46% 30.12 in 10.0 mi SSE 9.2 mph 18.4 mph N/A   Scattered Clouds
1:35 PM 90.1 °F 93.1 °F 66.6 °F 46% 30.11 in 10.0 mi SE 11.5 mph - N/A   Scattered Clouds
1:55 PM 89.6 °F 92.6 °F 66.7 °F 47% 30.11 in 10.0 mi SE 11.5 mph - N/A   Scattered Clouds
2:15 PM 90.7 °F 93.6 °F 66.7 °F 45% 30.10 in 10.0 mi SE 11.5 mph 16.1 mph N/A   Scattered Clouds
2:35 PM 90.3 °F 93.0 °F 66.6 °F 45% 30.10 in 10.0 mi SE 10.4 mph 16.1 mph N/A   Scattered Clouds
2:55 PM 90.3 °F 93.0 °F 66.2 °F 45% 30.10 in 10.0 mi SSE 11.5 mph - N/A   Scattered Clouds
3:15 PM 90.7 °F 94.1 °F 67.1 °F 46% 30.09 in 10.0 mi SE 12.7 mph - N/A   Scattered Clouds
3:35 PM 90.1 °F 92.7 °F 66.0 °F 45% 30.09 in 10.0 mi SSE 9.2 mph 16.1 mph N/A   Mostly Cloudy
3:55 PM 89.8 °F 92.9 °F 67.3 °F 47% 30.10 in 10.0 mi SSE 10.4 mph - N/A   Mostly Cloudy
4:15 PM 88.5 °F 91.6 °F 67.3 °F 49% 30.10 in 10.0 mi SSE 10.4 mph 16.1 mph N/A   Mostly Cloudy
4:35 PM 88.7 °F 91.9 °F 67.1 °F 49% 30.10 in 10.0 mi SSE 5.8 mph - N/A   Scattered Clouds
4:55 PM 87.8 °F 90.7 °F 67.3 °F 50% 30.10 in 10.0 mi SSE 8.1 mph - N/A   Scattered Clouds
5:15 PM 87.1 °F 90.2 °F 67.5 °F 52% 30.10 in 10.0 mi SSE 9.2 mph - N/A   Scattered Clouds
5:35 PM 85.1 °F 87.9 °F 67.1 °F 55% 30.10 in 10.0 mi SSE 9.2 mph - N/A   Clear
5:55 PM 83.8 °F 86.5 °F 67.3 °F 57% 30.11 in 10.0 mi SSE 5.8 mph - N/A   Clear
6:15 PM 83.7 °F 86.7 °F 68.0 °F 59% 30.11 in 10.0 mi SSE 8.1 mph - N/A   Clear
6:35 PM 82.0 °F 84.9 °F 68.0 °F 62% 30.11 in 10.0 mi SE 5.8 mph - N/A   Clear
6:55 PM 79.9 °F - 67.6 °F 66% 30.11 in 10.0 mi SE 5.8 mph - N/A   Clear
7:15 PM 77.9 °F - 67.5 °F 70% 30.11 in 10.0 mi SE 3.5 mph - N/A   Clear
7:35 PM 76.5 °F - 66.7 °F 72% 30.11 in 10.0 mi SE 4.6 mph - N/A   Clear
7:55 PM 75.2 °F - 66.9 °F 75% 30.12 in 10.0 mi Calm Calm - N/A   Clear
8:15 PM 74.1 °F - 66.4 °F 77% 30.12 in 10.0 mi SE 3.5 mph - N/A   Clear
8:35 PM 72.9 °F - 66.2 °F 80% 30.12 in 10.0 mi SSE 3.5 mph - N/A   Clear
9:15 PM 71.8 °F - 66.2 °F 83% 30.12 in 10.0 mi SSE 3.5 mph - N/A   Clear
9:35 PM 71.2 °F - 65.8 °F 83% 30.12 in 10.0 mi Calm Calm - N/A   Clear
9:55 PM 71.1 °F - 65.7 °F 83% 30.12 in 10.0 mi SE 4.6 mph - N/A   Clear
10:15 PM 70.5 °F - 65.7 °F 85% 30.12 in 10.0 mi Calm Calm - N/A   Clear
10:35 PM 70.2 °F - 65.1 °F 84% 30.12 in 10.0 mi Calm Calm - N/A   Clear
10:55 PM 69.8 °F - 64.8 °F 84% 30.12 in 10.0 mi Calm Calm - N/A   Clear
11:15 PM 68.9 °F - 64.0 °F 84% 30.12 in 7.0 mi Calm Calm - N/A   Clear
11:35 PM 68.9 °F - 64.6 °F 86% 30.12 in 7.0 mi Calm Calm - N/A   Clear
11:55 PM 67.8 °F - 63.9 °F 87% 30.12 in 5.0 mi Calm Calm - N/A   Clear